Location: Observatoire
(46.1952°N, 5.3391°E)
Time: 06:29:36
(UTC+01:00)

A-11 Canister half - Pass Details

Date: 26 February 2026
Orbit: 1524 x 1683 km, 47.3° (Epoch: 13 March)

Event Time Altitude Azimuth Distance (km) Brightness Sun altitude
Rises 19:17:55 0° 285° (WNW) 4,705 13.2 -10.7°
Reaches altitude 10° 19:20:59 10° 285° (WNW) 3,709 12.4 -11.2°
Maximum altitude 19:30:18 80° 201° (SSW) 1,545 9.0 -12.8°
Enters shadow 19:38:33 14° 116° (ESE) 3,358 10.2 -14.3°
Drops below altitude 10° 19:39:37 10° 115° (ESE) 3,700 - -14.4°
Sets 19:42:40 0° 115° (ESE) 4,693 - -15.0°
